2024-211D

Last updated on Wed Nov 20 2024 00:02:05 GMT+0000 (Coordinated Universal Time)

1 61986U 24211D 24321.75364574 .06204315 68214-5 58898-2 0 9990 2 61986 41.6383 232.5019 0205265 189.0244 170.6889 15.80640746 164
UTC large
Height (km)
Speed (km/s)
/
Latitude / Longitude
Inclination (degrees)
Orbital Period (minutes)
Azimuth
Elevation
Range (km)
Doppler Factor

Next 0 passes for location: London (51.5072 / 0.1276)

Sorry there are no passes over London.